Overview Statistics Trail Chart Weather Telemetry Raw packets
 

This is the latest recevied weather packets stored in our database for station/object KD7AWQ. If no packets are shown the sender has not sent any weather packets the latest 10 day(s).

<< 31 32 33 34 35 36 37 >>
Time Temp. Humidity Pressure Rain* Wind** Luminosity Snow
1788222914 23.33° C 49% 1186.6 hPa 0 mm - 125 W/m² -
1788222612 23.33° C 49% 1186.6 hPa 0 mm - 105 W/m² -
1788222312 23.33° C 49% 1186.7 hPa 0 mm - 119 W/m² -
1788222007 23.33° C 49% 1187 hPa 0 mm - 184 W/m² -
1788221701 23.33° C 48% 1187.2 hPa 0 mm - 202 W/m² -
1788221397 23.33° C 48% 1187.2 hPa 0 mm - 170 W/m² -
1788221091 22.78° C 50% 1186.9 hPa 0 mm - 238 W/m² -
1788220790 22.78° C 50% 1187.1 hPa 0 mm - 209 W/m² -
1788220486 22.78° C 51% 1187.7 hPa 0 mm - 206 W/m² -
1788220181 22.78° C 52% 1187.5 hPa 0 mm - 182 W/m² -
1788219876 22.78° C 51% 1187.7 hPa 0 mm - 165 W/m² -
1788219571 22.78° C 52% 1187.8 hPa 0 mm - 167 W/m² -
1788219266 22.78° C 51% 1187.5 hPa 0 mm - 155 W/m² -
1788218962 22.78° C 51% 1187.2 hPa 0 mm - 137 W/m² -
1788218658 22.78° C 51% 1187.1 hPa 0 mm - 132 W/m² -
1788218353 22.78° C 52% 1187.1 hPa 0 mm - 143 W/m² -
1788218049 22.22° C 52% 1186.7 hPa 0 mm - 163 W/m² -
1788217745 22.22° C 51% 1187 hPa 0 mm - 172 W/m² -
1788217439 22.22° C 52% 1187.1 hPa 0 mm - 154 W/m² -
1788217134 22.22° C 53% 1187.4 hPa 0 mm - 140 W/m² -
1788216829 22.22° C 55% 1187 hPa 0 mm - 132 W/m² -
1788216524 22.22° C 55% 1187.3 hPa 0 mm - 122 W/m² -
1788216219 21.67° C 58% 1187.7 hPa 0 mm - 109 W/m² -
1788215913 21.67° C 57% 1188.3 hPa 0 mm - 98 W/m² -
1788215610 22.22° C 57% 1188.7 hPa 0 mm - 85 W/m² -

* Rain latest hour (hover to see other rain measurements)
** Current wind speed in m/s (hover to see current wind gust speed)